Hourly Data Report for June 01, 2017

BORDEN AWOS
ONTARIO

44°16'20.000" N
79°54'42.000" W
222.50 m
611B002
71534
YBN

Download Data

Hourly Data (June 2017)
Hourly Data Report for June 1, 2017
TIME
LST
Temp Definition
°C
Dew Point Definition
°C
Rel Hum Definition
%
Precip. Amount Definition
mm

Wind Dir Definition
10's deg

Wind Spd Definition
km/h
Visibility Definition
km
Stn Press Definition
kPa
Hmdx Definition


Wind Chill Definition


Weather Definition


00:00 10.7 7.3 80   32 4 14.5 98.70     LegendNANA
01:00 9.9 6.9 82   32 6 14.5 98.71     LegendNANA
02:00 8.9 6.0 82   26 4 14.5 98.70     LegendNANA
03:00 8.5 5.8 83   26 4 14.5 98.70     LegendNANA
04:00 8.2 4.8 79   28 7 14.5 98.70     LegendNANA
05:00 7.9 4.6 80   29 11 14.5 98.79     LegendNANA
06:00 8.7 4.9 77   27 15 14.5 98.82     LegendNANA
07:00 10.3 4.5 67   28 22 14.5 98.85     LegendNANA
08:00 12.1 3.8 57   30 22 14.5 98.85     LegendNANA
09:00 13.8 3.5 50   29 30 14.5 98.86     LegendNANA
10:00 14.2 2.0 44   32 30 14.5 98.90     LegendNANA
11:00 15.3 2.7 43   32 17 14.5 98.93     LegendNANA
12:00 15.1 3.7 46   34 15 14.5 98.93     LegendNANA
13:00 15.2 2.3 42   32 19 14.5 98.93     LegendNANA
14:00 15.2 1.9 41   32 17 14.5 98.90     LegendNANA
15:00 15.6 1.9 40   28 19 14.5 98.89     LegendNANA
16:00 15.9 3.2 43   28 17 14.5 98.84     LegendNANA
17:00 11.8 7.1 73   32 15 14.5 98.92     Rain
18:00 10.0 9.1 94   35 9 14.5 98.92     Rain
19:00 10.7 8.9 89   19 6 14.5 98.84     LegendNANA
20:00 9.4 8.7 95   12 6 14.5 98.82     LegendNANA
21:00 7.8 7.8 100   30 4 14.5 98.86     LegendNANA
22:00 5.5 5.1 97   25 6 14.5 98.85     LegendNANA
23:00 5.1 5.0 99     0 14.5 98.84     LegendNANA

Notes on Data Quality.

Legend

  • E = Estimated
  • M = Missing
  • NA = Not Available*
  • [empty] = Indicates an unobserved value
Date modified: